Weather History for Mountain Home, AR

Change the Weather History Date:

Sunday, January 12, 2014

  Actual Average (KHRO) Record (KHRO)
Temperature  
Mean Temperature 47 °F 36 °F  
Max Temperature 64 °F 46 °F 78 °F (1928)
Min Temperature 30 °F 26 °F -17 °F (1918)
Degree Days  
Heating Degree Days 18 29  
Month to date heating degree days 348  
Since 1 July heating degree days 1947  
Cooling Degree Days 0 0  
Month to date cooling degree days 0  
Year to date cooling degree days 0  
Moisture  
Dew Point 27 °F    
Average Humidity 47    
Maximum Humidity 82    
Minimum Humidity 20    
Precipitation  
Precipitation 0.00 in 0.09 in 1.79 in (1916)
Month to date precipitation 1.01  
Year to date precipitation 1.01  
Snow  
Snow 0.00 in 0.10 in 6.00 in (1909)
Month to date snowfall 1.2  
Since 1 July snowfall 3.0  
Snow Depth -    
Sea Level Pressure  
Sea Level Pressure 29.86 in    
Wind  
Wind Speed 8 mph (South)    
Max Wind Speed 17 mph    
Max Gust Speed 26 mph    
Visibility 10 miles    
Events      
T = Trace of Precipitation, MM = Missing Value Source: NWS Daily Summary

Daily Weather History Graph

Daily Weather History Graph

Search for Another Location

Airport:

Trip Planner

Search our weather history database for the weather conditions in past years. The results will help you decide how hot, cold, wet, or windy it might be!

Date:

Astronomy

Jan. 12, 2014 Rise Set
Actual Time 7:21 AM CST 5:15 PM CST
Civil Twilight 6:53 AM CST 5:43 PM CST
Nautical Twilight 6:21 AM CST 6:15 PM CST
Astronomical Twilight 5:50 AM CST 6:46 PM CST
Moon 2:43 PM CST (1/12) 4:21 AM CST (1/12)
Length of Visible Light 10h 50m
Length of Day
9h 54m
Waxing Gibbous, 90% of the Moon is Illuminated
Jan 12
Waxing Gibbous
Jan 15
Full
Jan 23
Last Quarter
Jan 30
New
Feb 6
First Quarter

Hourly Weather History & Observations

Time (CST) Temp. Windchill Dew Point Humidity Pressure Visibility Wind Dir Wind Speed Gust Speed Precip Events Conditions
12:53 AM 39.0 °F 36.8 °F 28.0 °F 65% 29.99 in 10.0 mi SW 3.5 mph - N/A   Clear
1:53 AM 33.1 °F 30.0 °F 28.0 °F 82% 29.99 in 10.0 mi SSW 3.5 mph - N/A   Clear
2:53 AM 32.0 °F 28.7 °F 27.0 °F 82% 30.01 in 10.0 mi South 3.5 mph - N/A   Clear
3:53 AM 32.0 °F 28.7 °F 27.0 °F 82% 30.01 in 10.0 mi South 3.5 mph - N/A   Clear
4:53 AM 30.9 °F 26.2 °F 26.1 °F 82% 29.99 in 10.0 mi SSE 4.6 mph - N/A   Clear
5:53 AM 34.0 °F 28.0 °F 27.0 °F 75% 29.98 in 10.0 mi South 6.9 mph - N/A   Clear
6:53 AM 34.0 °F 28.0 °F 26.1 °F 73% 29.99 in 10.0 mi SSE 6.9 mph - N/A   Clear
7:53 AM 37.9 °F 32.7 °F 27.0 °F 65% 29.98 in 10.0 mi South 6.9 mph - N/A   Clear
8:53 AM 42.1 °F 36.6 °F 28.0 °F 58% 29.99 in 10.0 mi South 9.2 mph - N/A   Clear
9:53 AM 50.0 °F - 28.9 °F 44% 29.97 in 10.0 mi South 8.1 mph - N/A   Clear
10:53 AM 57.0 °F - 27.0 °F 32% 29.94 in 10.0 mi South 12.7 mph 21.9 mph N/A   Clear
11:53 AM 59.0 °F - 26.1 °F 28% 29.88 in 10.0 mi South 15.0 mph 23.0 mph N/A   Clear
12:53 PM 64.0 °F - 23.0 °F 21% 29.83 in 10.0 mi SW 15.0 mph 26.5 mph N/A   Clear
1:53 PM 64.0 °F - 21.9 °F 20% 29.80 in 10.0 mi SSW 17.3 mph 26.5 mph N/A   Clear
2:53 PM 64.0 °F - 24.1 °F 22% 29.77 in 10.0 mi SSW 15.0 mph 25.3 mph N/A   Clear
3:53 PM 63.0 °F - 26.1 °F 25% 29.75 in 10.0 mi SSW 16.1 mph 26.5 mph N/A   Clear
4:53 PM 60.1 °F - 27.0 °F 28% 29.75 in 10.0 mi South 16.1 mph 23.0 mph N/A   Clear
5:53 PM 57.9 °F - 28.0 °F 32% 29.74 in 10.0 mi South 13.8 mph 24.2 mph N/A   Clear
6:53 PM 57.0 °F - 28.0 °F 33% 29.74 in 10.0 mi South 11.5 mph - N/A   Clear
7:53 PM 57.0 °F - 28.0 °F 33% 29.75 in 10.0 mi South 12.7 mph 19.6 mph N/A   Clear
8:53 PM 57.0 °F - 28.0 °F 33% 29.75 in 10.0 mi South 10.4 mph 18.4 mph N/A   Clear
9:53 PM 55.9 °F - 28.0 °F 34% 29.73 in 10.0 mi South 13.8 mph 19.6 mph N/A   Clear
10:53 PM 55.9 °F - 28.0 °F 34% 29.70 in 10.0 mi South 13.8 mph 24.2 mph N/A   Clear
11:53 PM 55.9 °F - 28.9 °F 36% 29.68 in 10.0 mi South 12.7 mph 21.9 mph N/A   Clear